Location: Unspecified
(42.3650°N, 71.1030°W)
Time: 02:20:37
(UTC+00:00)

Cosmos 1503 Rocket - Pass Details

Date: 02 March 2024
Orbit: 750 x 789 km, 74.0° (Epoch: 13 April)

Event Time Altitude Azimuth Distance (km) Brightness Sun altitude
Rises 23:20:05 0° 178° (S) 3,184 7.2 -8.9°
Reaches altitude 10° 23:22:32 10° 171° (S) 2,263 6.4 -9.4°
Maximum altitude 23:27:18 40° 102° (ESE) 1,095 4.4 -10.2°
Drops below altitude 10° 23:32:06 10° 34° (NE) 2,283 6.1 -11.1°
Sets 23:34:35 0° 27° (NNE) 3,215 7.0 -11.6°
